Dauntless Aviation
Greetings, Guest! To participate, [sign up for a free account] or [log in]
Airports South America Uruguay

Hospital Policial

Montevideo, URUGUAY

Airport Info
Edit

Location

Latitude / Longitude: 34°52'4"S / 56°9'6"W
  34°52.068'S / 56°9.114'W
  -34.8678 / -56.1519
Satellite photo at:
Airport distance calculator
From:
Weather Reports

METAR

SUAA
7.8nm NW
SUAA 021800Z 07015KT 9999 FEW007 SCT050 OVC200 17/15 Q1010
SUMU
8.1nm NE
SUMU 021800Z 08010G20KT 9999 FEW013 BKN070 17/14 Q1010 NOSIG

TAF

SUAA
7.8nm NW
TAF SUAA 021700Z 0218/0318 10015KT 9999 SCT030 BKN060 TX18/0318Z TN13/0310Z PROB30 TEMPO 0218/0300 09018G28KT 5000 RA SCT020 OVC060
SUMU
8.1nm NE
TAF SUMU 021700Z 0218/0318 10015KT 9999 SCT030 BKN060 TX18/0318Z TN13/0310Z PROB30 TEMPO 0218/0300 09018G28KT 5000 RA SCT020 OVC060
Safelog

 

Dauntless Aviation

© 2007-2014 Dauntless Aviation, all rights reserved
Information provided via PilotNav comes from a variety of official and unofficial data sources. As errors are possible, do not use PilotNav for primary flight planning purposes. Verify any information that you receive via PilotNav with current and canonical charts and other official documents. The material in this database is subject to database copyrights held by Dauntless Aviation and may not be copied without the express permission of Dauntless Aviation - licenses for use of part of all of this data are available for purchase; enquire via the Dauntless Aviation helpdesk. A number of mechanisms and markers exist in the database to protect against and identify infringement / copyright. Automated queries against this website are stictly prohibited, and all activity is logged and analyzed.